Location: PACMO
(41.3967°N, 90.3760°W)
Time: 02:15:41
(UTC-05:00)

Amateur Radio Satellites - All Passes

Search period start: 29 June 2016 01:45
Search period end: 30 June 2016 01:45
Location: PACMO, 41.3967°N, 90.3760°W

Satellite Date Start Highest point End Downlink Frequencies (MHz)
Time Altitude Azimuth
PCSat 29 Jun 02:10:29 02:15:44 53° 113° (ESE) 02:21:01 145.827
YUBILEINY 29 Jun 02:15:28 02:21:49 23° 281° (W) 02:28:11 435.215
BUGSAT 1 29 Jun 02:16:37 02:19:35 20° 293° (WNW) 02:22:36 437.445
SWISSCUBE 29 Jun 02:21:05 02:25:52 75° 74° (ENE) 02:30:40 437.505
Oscar 19 29 Jun 02:25:43 02:30:50 67° 102° (ESE) 02:35:56 437.125/150
JAS-2 29 Jun 02:44:22 02:49:26 35° 294° (WNW) 02:54:09 435.910
Gurwin Techsat 1B 29 Jun 02:45:54 02:51:01 45° 99° (E) 02:56:05 435.225
BEESAT 29 Jun 02:46:23 02:51:08 68° 258° (WSW) 02:55:56 436.000
ITUPSAT 1 29 Jun 02:47:40 02:52:27 68° 258° (WSW) 02:57:16 437.325
BEESAT 3 29 Jun 02:47:59 02:51:53 69° 120° (ESE) 02:55:48 437.485
ITAMSAT 1 29 Jun 02:50:21 02:53:47 17° 92° (E) 02:57:09 435.822/435.867
O/OREOS (USA 219) 29 Jun 03:04:41 03:09:11 81° 110° (ESE) 03:13:41 437.305
Cosmos 2504 29 Jun 03:07:18 03:14:46 32° 277° (W) 03:22:00 435.465 / 435.565
MOZHAYETS 4 29 Jun 03:22:15 03:26:17 31° 69° (ENE) 03:30:22
BEESAT 2 29 Jun 03:26:40 03:30:37 83° 303° (WNW) 03:34:38 435.950
Cosmos 2491 29 Jun 03:28:17 03:33:35 17° 300° (WNW) 03:38:55 435.465 / 435.565
KKS-1 29 Jun 03:28:38 03:32:44 39° 71° (ENE) 03:36:52 437.445
AO-7 29 Jun 03:40:05 03:46:47 26° 94° (E) 03:53:25 29.400- 29.500
PCSat 29 Jun 03:54:59 03:59:26 25° 313° (NW) 04:03:55 145.827
STARS 29 Jun 03:59:29 04:03:36 42° 71° (ENE) 04:07:42 437.465
SWISSCUBE 29 Jun 04:02:35 04:04:10 11° 271° (W) 04:05:45 437.505
Oscar 19 29 Jun 04:06:33 04:09:35 16° 299° (WNW) 04:12:38 437.125/150
AIST 2 29 Jun 04:14:14 04:16:50 16° 110° (ESE) 04:19:28 435.215
GONETS M04 29 Jun 04:19:35 04:25:44 21° 63° (ENE) 04:31:53
AIST 1 29 Jun 04:20:12 04:24:25 58° 80° (E) 04:28:36
Gurwin Techsat 1B 29 Jun 04:26:28 04:30:39 24° 296° (WNW) 04:34:50 435.225
BEESAT 3 29 Jun 04:27:51 04:30:00 14° 319° (NW) 04:32:10 437.485
ITAMSAT 1 29 Jun 04:28:27 04:33:37 58° 288° (WNW) 04:38:42 435.822/435.867
HORYU 2 29 Jun 04:46:26 04:48:30 13° 91° (E) 04:50:33 437.375
O/OREOS (USA 219) 29 Jun 04:47:26 04:49:11 12° 309° (NW) 04:50:56 437.305
CUBESAT XI-V 29 Jun 04:51:05 04:55:13 31° 69° (ENE) 04:59:20 437.345
AO-85 29 Jun 04:58:25 05:00:42 13° 35° (NE) 05:02:52 145.980
MOZHAYETS 4 29 Jun 04:59:32 05:03:26 27° 265° (W) 05:07:22
KKS-1 29 Jun 05:06:18 05:09:27 19° 267° (W) 05:12:36 437.445
BEESAT 2 29 Jun 05:07:53 05:09:07 11° 322° (NW) 05:10:21 435.950
AO-7 29 Jun 05:31:50 05:40:09 70° 292° (WNW) 05:48:26 29.400- 29.500
STARS 29 Jun 05:37:15 05:40:08 17° 267° (W) 05:43:02 437.465
Cosmos 2499 29 Jun 05:48:05 05:56:33 48° 74° (ENE) 06:04:29 435.465 / 435.565
AIST 2 29 Jun 05:50:59 05:54:57 46° 307° (NW) 05:58:58 435.215
AIST 1 29 Jun 06:00:15 06:01:27 11° 276° (W) 06:02:39
NOAA 15 29 Jun 06:00:41 06:04:04 17° 92° (E) 06:07:25 137.62
GONETS M04 29 Jun 06:14:57 06:23:43 86° 264° (W) 06:32:29
HORYU 2 29 Jun 06:20:59 06:25:25 60° 287° (WNW) 06:29:51 437.375
STRAND 1 29 Jun 06:25:27 06:29:32 24° 64° (ENE) 06:33:36 437.568
CUBESAT XI-V 29 Jun 06:28:35 06:32:34 27° 265° (W) 06:36:33 437.345
AO-85 29 Jun 06:37:27 06:42:00 83° 57° (ENE) 06:46:08 145.980
CUSAT 1 29 Jun 06:37:40 06:43:38 25° 89° (E) 06:48:55 437.405
NOAA 18 29 Jun 06:38:04 06:42:57 31° 96° (E) 06:47:48 137.9125
Cubesat XI-IV 29 Jun 06:38:59 06:43:38 29° 95° (E) 06:48:15 437.490
BRITE-PL 29 Jun 06:55:11 06:59:17 55° 100° (E) 07:03:24 437.365/2234.400
DANDE 29 Jun 07:05:24 07:11:34 24° 85° (E) 07:17:25 436.750
PHONESAT 2.4 29 Jun 07:09:22 07:12:09 32° 159° (SSE) 07:14:56 2401.200-2431.200
CUTE-I 29 Jun 07:12:42 07:18:02 59° 101° (E) 07:23:19 437.470
LilacSat-2 29 Jun 07:13:53 07:17:46 66° 102° (ESE) 07:21:37 437.200
GOMX 1 29 Jun 07:25:30 07:29:38 52° 100° (E) 07:33:55 467.674
AO-7 29 Jun 07:26:38 07:31:27 17° 313° (NW) 07:36:15 29.400- 29.500
PRISM 29 Jun 07:38:47 07:41:26 17° 65° (ENE) 07:44:03 437.425
NOAA 15 29 Jun 07:39:03 07:44:13 59° 288° (WNW) 07:49:20 137.62
Cosmos 2499 29 Jun 07:41:37 07:49:24 38° 275° (W) 07:56:47 435.465 / 435.565
STRAND 1 29 Jun 08:03:33 08:08:25 43° 261° (W) 08:13:20 437.568
HO-68 29 Jun 08:10:14 08:16:13 27° 94° (E) 08:22:09 435.675
GONETS M04 29 Jun 08:14:16 08:19:09 17° 284° (WNW) 08:24:03
ISS 29 Jun 08:16:30 08:19:20 28° 135° (SE) 08:22:10 145.825
CUSAT 1 29 Jun 08:17:42 08:25:25 63° 281° (WNW) 08:31:52 437.405
NOAA 18 29 Jun 08:18:35 08:23:37 37° 293° (WNW) 08:28:39 137.9125
Cubesat XI-IV 29 Jun 08:18:49 08:23:44 37° 292° (WNW) 08:28:37 437.490
CANX-2 29 Jun 08:19:37 08:23:13 26° 95° (E) 08:26:47 2200.000
COMPASS 1 29 Jun 08:20:51 08:21:57 11° 89° (E) 08:23:03 437.405
DOVE 4 29 Jun 08:22:19 08:26:40 82° 284° (WNW) 08:31:14 437.250
BRITE-PL 29 Jun 08:35:33 08:37:21 13° 297° (WNW) 08:39:08 437.365/2234.400
CUTE 1.7 + AOD 2 29 Jun 08:39:12 08:43:11 37° 97° (E) 08:47:08 437.475
SEEDS 29 Jun 08:42:08 08:45:49 28° 95° (E) 08:49:27 437.485
DANDE 29 Jun 08:45:20 08:53:47 79° 281° (W) 09:01:32 436.750
PHONESAT 2.4 29 Jun 08:45:31 08:48:35 74° 175° (S) 08:51:38 2401.200-2431.200
CUTE-I 29 Jun 08:53:52 08:57:36 19° 298° (WNW) 09:01:18 437.470
GOMX 1 29 Jun 09:05:09 09:07:22 14° 295° (WNW) 09:09:36 467.674
CUBEBUG 2 29 Jun 09:05:40 09:09:36 27° 95° (E) 09:13:36 437.445
PRISM 29 Jun 09:12:26 09:16:23 43° 261° (W) 09:20:22 437.425
CINEMA 3 29 Jun 09:12:48 09:17:21 81° 284° (WNW) 09:22:08 145.822/145.860
AAUSAT CUBESAT 2 29 Jun 09:19:01 09:22:59 40° 98° (E) 09:26:53 437.432
ANTELSAT 29 Jun 09:19:57 09:22:18 14° 63° (ENE) 09:24:41 437.575/2403.000
ZACube-1 29 Jun 09:29:10 09:32:42 22° 94° (E) 09:36:14 437.345
M-CUBED/EXP-1 PRIME 29 Jun 09:37:14 09:40:39 27° 103° (ESE) 09:44:17 437.505
Oscar 11 29 Jun 09:37:33 09:41:15 26° 95° (E) 09:44:55 145.826/435.025
FUNcube-1 29 Jun 09:45:57 09:50:00 30° 96° (E) 09:54:01 145.935
UWE-3 29 Jun 09:51:07 09:55:39 56° 100° (E) 10:00:14 435.000/436.395/437.385
ISS 29 Jun 09:52:38 09:55:42 36° 333° (NNW) 09:58:46 145.825
COMPASS 1 29 Jun 09:53:46 09:57:55 61° 286° (WNW) 10:02:01 437.405
CANX-2 29 Jun 09:55:23 09:59:01 27° 291° (WNW) 10:02:37 2200.000
HO-68 29 Jun 09:57:15 10:04:16 58° 292° (WNW) 10:11:16 435.675
CUSAT 1 29 Jun 10:06:13 10:08:18 11° 297° (WNW) 10:10:17 437.405
TIGRISAT 29 Jun 10:09:15 10:13:20 44° 72° (ENE) 10:17:31 435.000
RS-15 29 Jun 10:11:14 10:18:20 19° 97° (E) 10:25:37 29.354- 29.394
UNISAT 6 29 Jun 10:14:31 10:18:42 53° 73° (ENE) 10:23:00 437.425
CUTE 1.7 + AOD 2 29 Jun 10:15:41 10:18:46 20° 294° (WNW) 10:21:51 437.475
SEEDS 29 Jun 10:17:57 10:21:24 24° 292° (WNW) 10:24:49 437.485
PHONESAT 2.4 29 Jun 10:22:05 10:25:06 56° 193° (SSW) 10:28:08 2401.200-2431.200
QB50P1 29 Jun 10:23:47 10:25:08 11° 62° (ENE) 10:26:30 145.935-145.965
POPSAT HIP 1 29 Jun 10:26:46 10:28:25 12° 62° (ENE) 10:30:04 437.405
AUBIESAT-1 29 Jun 10:31:13 10:35:11 85° 288° (WNW) 10:39:26 437.475
DANDE 29 Jun 10:32:19 10:37:33 18° 297° (WNW) 10:42:31 436.750
HUMSAT D 29 Jun 10:35:33 10:39:08 25° 95° (E) 10:42:41 437.325/437.525
QB50P2 29 Jun 10:38:01 10:40:47 17° 65° (ENE) 10:43:34 145.880/145.840
DUCHIFAT 1 29 Jun 10:39:21 10:41:45 15° 64° (ENE) 10:44:09 145.980
POLYITAN 1 29 Jun 10:40:35 10:43:24 18° 65° (ENE) 10:46:14 437.675
CUBEBUG 2 29 Jun 10:42:08 10:46:11 31° 290° (WNW) 10:50:18 437.445
ANTELSAT 29 Jun 10:54:18 10:58:31 55° 260° (W) 11:02:52 437.575/2403.000
AAUSAT CUBESAT 2 29 Jun 10:55:25 10:58:09 17° 294° (WNW) 11:00:51 437.432
PCSat 29 Jun 10:58:14 11:03:25 44° 54° (NE) 11:08:34 145.827
DELFI C3 29 Jun 10:59:18 11:03:19 79° 285° (WNW) 11:07:16 145.870
ZACube-1 29 Jun 11:04:53 11:09:04 37° 289° (WNW) 11:13:16 437.345
BEESAT 3 29 Jun 11:05:14 11:08:59 40° 52° (NE) 11:12:42 437.485
JAS-2 29 Jun 11:11:49 11:16:43 19° 60° (ENE) 11:21:20 435.910
M-CUBED/EXP-1 PRIME 29 Jun 11:11:53 11:15:06 25° 295° (WNW) 11:18:30 437.505
Oscar 11 29 Jun 11:13:36 11:17:18 27° 291° (WNW) 11:20:59 145.826/435.025
FUNcube-1 29 Jun 11:22:19 11:26:06 27° 292° (WNW) 11:29:55 145.935
YUBILEINY 29 Jun 11:25:59 11:30:55 17° 76° (ENE) 11:35:51 435.215
UWE-3 29 Jun 11:28:53 11:31:40 16° 296° (WNW) 11:34:28 435.000/436.395/437.385
ISS 29 Jun 11:30:53 11:32:50 15° 352° (N) 11:34:48 145.825
BUGSAT 1 29 Jun 11:30:54 11:34:07 24° 68° (ENE) 11:37:21 437.445
O/OREOS (USA 219) 29 Jun 11:36:22 11:39:21 17° 54° (NE) 11:42:19 437.305
VELOX 1 29 Jun 11:36:44 11:38:22 12° 90° (E) 11:39:59 145.980
Cosmos 2491 29 Jun 11:36:55 11:45:21 51° 76° (ENE) 11:53:46 435.465 / 435.565
BEESAT 2 29 Jun 11:44:38 11:48:35 58° 55° (NE) 11:52:31 435.950
TIGRISAT 29 Jun 11:47:33 11:50:16 16° 268° (W) 11:53:01 435.000
HO-68 29 Jun 11:48:20 11:50:29 11° 312° (NW) 11:52:36 435.675
NANOSAT C BR1 29 Jun 11:52:40 11:56:50 78° 258° (WSW) 12:01:03 145.865
UNISAT 6 29 Jun 11:53:39 11:55:47 13° 270° (W) 11:57:56 437.425
QB50P1 29 Jun 11:56:11 12:00:21 67° 259° (WSW) 12:04:33 145.935-145.965
PHONESAT 2.4 29 Jun 11:59:12 12:01:22 18° 208° (SSW) 12:03:31 2401.200-2431.200
POPSAT HIP 1 29 Jun 11:59:31 12:03:40 62° 259° (W) 12:07:50 437.405
Oscar 19 29 Jun 12:06:50 12:09:06 13° 59° (ENE) 12:11:23 437.125/150
HUMSAT D 29 Jun 12:10:59 12:14:42 29° 291° (WNW) 12:18:25 437.325/437.525
UKube-1 29 Jun 12:11:56 12:14:53 18° 93° (E) 12:17:48 .
QB50P2 29 Jun 12:12:18 12:16:16 41° 261° (W) 12:20:16 145.880/145.840
SPROUT 29 Jun 12:12:35 12:14:32 13° 91° (E) 12:16:30 437.525
DUCHIFAT 1 29 Jun 12:13:01 12:17:02 48° 260° (W) 12:21:06 145.980
ESTCUBE 1 29 Jun 12:14:53 12:19:18 52° 100° (E) 12:23:40 437.505/2401.250
POLYITAN 1 29 Jun 12:14:58 12:18:54 40° 262° (W) 12:22:53 437.675
AISAT 29 Jun 12:15:42 12:19:43 34° 98° (E) 12:23:42 437.250
RS-15 29 Jun 12:17:18 12:28:40 81° 119° (ESE) 12:40:43 29.354- 29.394
DX 1 29 Jun 12:32:38 12:36:41 37° 98° (E) 12:40:42 434.975-435.025
AIST 2 29 Jun 12:34:48 12:37:13 15° 41° (NE) 12:39:38 435.215
PCSat 29 Jun 12:42:05 12:46:35 27° 252° (WSW) 12:51:02 145.827
BEESAT 3 29 Jun 12:43:41 12:46:22 18° 249° (WSW) 12:49:04 437.485
JAS-2 29 Jun 12:53:20 13:01:01 88° 256° (WSW) 13:08:01 435.910
50 SAT 29 Jun 12:59:57 13:03:36 61° 286° (WNW) 13:07:13 437.505
CUBEBUG 1 29 Jun 13:00:25 13:04:43 72° 286° (WNW) 13:09:01 437.445
BUGSAT 1 29 Jun 13:06:02 13:09:24 26° 264° (W) 13:12:48 437.445
ISS 29 Jun 13:08:05 13:10:16 16° 13° (NNE) 13:12:28 145.825
VELOX 1 29 Jun 13:10:53 13:15:13 62° 286° (WNW) 13:19:33 145.980
O/OREOS (USA 219) 29 Jun 13:14:42 13:19:03 51° 252° (WSW) 13:23:24 437.305
YUBILEINY 29 Jun 13:17:36 13:26:18 86° 97° (E) 13:35:07 435.215
BEESAT 2 29 Jun 13:24:14 13:25:56 12° 251° (WSW) 13:27:37 435.950
TISAT 1 29 Jun 13:28:25 13:31:44 22° 95° (E) 13:35:02 437.305
Cosmos 2491 29 Jun 13:34:16 13:41:50 35° 275° (W) 13:49:26 435.465 / 435.565
Oscar 19 29 Jun 13:42:33 13:47:42 84° 255° (WSW) 13:52:53 437.125/150
SPROUT 29 Jun 13:46:37 13:50:49 55° 286° (WNW) 13:55:00 437.525
UKube-1 29 Jun 13:47:03 13:51:05 40° 289° (WNW) 13:55:06 .
Cosmos 2504 29 Jun 13:50:54 13:58:33 47° 88° (E) 14:06:41 435.465 / 435.565
AISAT 29 Jun 13:52:35 13:56:00 22° 294° (WNW) 13:59:24 437.250
ESTCUBE 1 29 Jun 13:52:58 13:55:40 16° 297° (WNW) 13:58:22 437.505/2401.250
Gurwin Techsat 1B 29 Jun 14:06:57 14:12:13 72° 74° (ENE) 14:17:32 435.225
ITAMSAT 1 29 Jun 14:08:03 14:12:24 28° 65° (ENE) 14:16:48 435.822/435.867
DX 1 29 Jun 14:09:27 14:12:36 20° 295° (WNW) 14:15:46 434.975-435.025
AIST 2 29 Jun 14:12:02 14:16:11 72° 239° (WSW) 14:20:18 435.215
SWISSCUBE 29 Jun 14:22:11 14:25:33 19° 93° (E) 14:28:54 437.505
RS-15 29 Jun 14:31:58 14:42:30 37° 325° (NW) 14:53:35 29.354- 29.394
AO-7 29 Jun 14:39:02 14:46:28 38° 59° (ENE) 14:53:56 29.400- 29.500
JAS-2 29 Jun 14:42:14 14:46:38 16° 271° (W) 14:50:53 435.910
ISS 29 Jun 14:44:03 14:47:17 53° 32° (NNE) 14:50:28 145.825
BEESAT 29 Jun 14:46:43 14:50:55 30° 96° (E) 14:55:06 436.000
ITUPSAT 1 29 Jun 14:48:24 14:52:39 30° 96° (E) 14:56:51 437.325
TISAT 1 29 Jun 15:03:41 15:07:24 31° 290° (WNW) 15:11:06 437.305
YUBILEINY 29 Jun 15:18:12 15:24:18 21° 297° (WNW) 15:30:28 435.215
SO-50 29 Jun 15:20:18 15:24:37 32° 114° (ESE) 15:28:56 436.795
Cosmos 2504 29 Jun 15:44:32 15:52:02 38° 289° (WNW) 16:00:02 435.465 / 435.565
HORYU 2 29 Jun 15:45:03 15:47:07 13° 62° (ENE) 15:49:12 437.375
ITAMSAT 1 29 Jun 15:46:54 15:51:42 37° 262° (W) 15:56:34 435.822/435.867
Gurwin Techsat 1B 29 Jun 15:49:58 15:52:42 14° 270° (W) 15:55:26 435.225
SWISSCUBE 29 Jun 15:58:59 16:03:35 46° 289° (WNW) 16:08:07 437.505
ISS 29 Jun 16:21:11 16:23:27 17° 228° (SW) 16:25:42 145.825
BEESAT 29 Jun 16:24:30 16:28:38 29° 293° (WNW) 16:32:45 436.000
ITUPSAT 1 29 Jun 16:26:16 16:30:24 29° 293° (WNW) 16:34:31 437.325
AO-7 29 Jun 16:30:55 16:38:57 52° 258° (WSW) 16:47:06 29.400- 29.500
AIST 1 29 Jun 16:49:37 16:53:30 34° 91° (E) 16:57:23
RS-15 29 Jun 16:50:59 16:59:58 23° 360° (N) 17:09:07 29.354- 29.394
MOZHAYETS 4 29 Jun 16:53:28 16:58:08 71° 102° (ESE) 17:02:44
KKS-1 29 Jun 16:55:25 16:59:53 80° 101° (ESE) 17:04:20 437.445
CUTE-I 29 Jun 16:58:03 17:00:38 14° 58° (ENE) 17:03:13 437.470
SO-50 29 Jun 17:00:34 17:05:03 35° 312° (NW) 17:09:31 436.795
HORYU 2 29 Jun 17:18:44 17:23:08 65° 259° (W) 17:27:34 437.375
NOAA 15 29 Jun 17:20:23 17:24:53 29° 66° (ENE) 17:29:23 137.62
GONETS M04 29 Jun 17:22:12 17:28:27 23° 80° (E) 17:34:40
STARS 29 Jun 17:24:34 17:29:00 83° 101° (E) 17:33:25 437.465
LilacSat-2 29 Jun 17:56:05 17:59:26 31° 71° (ENE) 18:02:49 437.200
Cubesat XI-IV 29 Jun 18:00:52 18:05:58 48° 70° (ENE) 18:11:07 437.490
NOAA 18 29 Jun 18:04:18 18:09:39 58° 71° (ENE) 18:15:02 137.9125
BRITE-PL 29 Jun 18:05:29 18:10:29 68° 75° (ENE) 18:15:06 437.365/2234.400
Cosmos 2499 29 Jun 18:24:04 18:31:32 38° 85° (E) 18:39:25 435.465 / 435.565
CUBESAT XI-V 29 Jun 18:24:06 18:28:45 76° 102° (ESE) 18:33:20 437.345
AIST 1 29 Jun 18:28:01 18:31:11 20° 288° (WNW) 18:34:22
MOZHAYETS 4 29 Jun 18:32:37 18:34:40 13° 299° (WNW) 18:36:45
GOMX 1 29 Jun 18:33:39 18:38:10 58° 74° (ENE) 18:42:25 467.674
CUTE-I 29 Jun 18:34:34 18:39:55 86° 256° (WSW) 18:45:20 437.470
KKS-1 29 Jun 18:34:41 18:35:48 11° 300° (WNW) 18:36:55 437.445
HO-68 29 Jun 18:40:04 18:45:17 22° 57° (ENE) 18:50:30 435.675
CUSAT 1 29 Jun 18:55:03 18:58:37 78° 261° (W) 19:01:29 437.405
NOAA 15 29 Jun 18:59:40 19:04:31 36° 262° (W) 19:09:23 137.62
STARS 29 Jun 19:04:04 19:04:41 10° 300° (WNW) 19:05:17 437.465
RS-15 29 Jun 19:06:27 19:17:32 37° 34° (NE) 19:28:37 29.354- 29.394
CANX-2 29 Jun 19:12:52 19:15:57 20° 66° (ENE) 19:19:03 2200.000
GONETS M04 29 Jun 19:15:35 19:24:17 75° 279° (W) 19:33:01
DOVE 4 29 Jun 19:28:02 19:32:22 81° 259° (W) 19:36:34 437.250
DANDE 29 Jun 19:28:19 19:33:12 84° 78° (ENE) 19:36:48 436.750
LilacSat-2 29 Jun 19:31:15 19:33:49 17° 267° (W) 19:36:24 437.200
CUTE 1.7 + AOD 2 29 Jun 19:32:01 19:35:37 27° 69° (ENE) 19:39:15 437.475
SEEDS 29 Jun 19:34:15 19:37:25 21° 67° (ENE) 19:40:38 437.485
Cubesat XI-IV 29 Jun 19:42:11 19:46:16 22° 267° (W) 19:50:22 437.490
NOAA 18 29 Jun 19:46:57 19:50:41 19° 268° (W) 19:54:26 137.9125
BRITE-PL 29 Jun 19:47:05 19:49:17 13° 269° (W) 19:51:26 437.365/2234.400
CUBESAT XI-V 29 Jun 20:03:43 20:05:29 12° 299° (WNW) 20:07:14 437.345
CUBEBUG 2 29 Jun 20:04:33 20:07:42 21° 66° (ENE) 20:10:54 437.445
AAUSAT CUBESAT 2 29 Jun 20:09:22 20:12:56 28° 69° (ENE) 20:16:32 437.432
STRAND 1 29 Jun 20:13:36 20:18:45 65° 102° (ESE) 20:23:50 437.568
GOMX 1 29 Jun 20:14:30 20:16:32 13° 268° (W) 20:18:33 467.674
CINEMA 3 29 Jun 20:14:43 20:18:51 89° 258° (WSW) 20:23:03 145.822/145.860
Cosmos 2499 29 Jun 20:16:26 20:24:26 48° 286° (WNW) 20:32:55 435.465 / 435.565
M-CUBED/EXP-1 PRIME 29 Jun 20:24:45 20:27:37 29° 66° (ENE) 20:30:30 437.505
HO-68 29 Jun 20:25:05 20:32:14 77° 255° (WSW) 20:39:28 435.675
ZACube-1 29 Jun 20:25:53 20:28:35 17° 65° (ENE) 20:31:18 437.345
Oscar 11 29 Jun 20:32:39 20:35:57 22° 67° (ENE) 20:39:16 145.826/435.025
FUNcube-1 29 Jun 20:42:00 20:45:19 23° 67° (ENE) 20:48:43 145.935
COMPASS 1 29 Jun 20:43:59 20:48:12 87° 77° (ENE) 20:52:27 437.405
CANX-2 29 Jun 20:47:34 20:51:32 37° 263° (W) 20:55:34 2200.000
UWE-3 29 Jun 20:48:17 20:52:15 42° 72° (ENE) 20:56:18 435.000/436.395/437.385
AO-85 29 Jun 20:50:57 20:55:41 31° 113° (ESE) 21:00:20 145.980
PRISM 29 Jun 20:54:13 20:57:31 23° 95° (E) 21:00:47 437.425
CUTE 1.7 + AOD 2 29 Jun 21:07:48 21:11:23 26° 265° (W) 21:15:01 437.475
SEEDS 29 Jun 21:09:02 21:12:55 34° 263° (W) 21:16:49 437.485
GONETS M04 29 Jun 21:18:05 21:22:45 15° 301° (WNW) 21:27:27
AUBIESAT-1 29 Jun 21:18:14 21:21:28 61° 253° (WSW) 21:24:47 437.475
RS-15 29 Jun 21:19:13 21:31:38 85° 240° (WSW) 21:43:53 29.354- 29.394
HUMSAT D 29 Jun 21:27:29 21:30:20 18° 66° (ENE) 21:33:13 437.325/437.525
CUBEBUG 2 29 Jun 21:40:21 21:44:07 33° 264° (W) 21:47:59 437.445
DELFI C3 29 Jun 21:44:50 21:48:48 58° 74° (ENE) 21:52:46 145.870
AAUSAT CUBESAT 2 29 Jun 21:44:57 21:48:23 24° 265° (W) 21:51:50 437.432
STRAND 1 29 Jun 21:54:09 21:57:22 17° 299° (WNW) 22:00:33 437.568
ZACube-1 29 Jun 22:00:28 22:04:29 44° 261° (W) 22:08:38 437.345
M-CUBED/EXP-1 PRIME 29 Jun 22:00:37 22:02:18 13° 261° (W) 22:04:01 437.505
UNISAT 6 29 Jun 22:07:53 22:09:45 12° 90° (E) 22:11:38 437.425
Oscar 11 29 Jun 22:07:54 22:11:52 34° 263° (W) 22:15:52 145.826/435.025
FUNcube-1 29 Jun 22:17:41 22:21:24 30° 264° (W) 22:25:13 145.935
HO-68 29 Jun 22:18:21 22:21:03 12° 273° (W) 22:23:44 435.675
UWE-3 29 Jun 22:26:21 22:28:57 16° 269° (W) 22:31:35 435.000/436.395/437.385
PRISM 29 Jun 22:29:20 22:32:47 27° 292° (WNW) 22:36:14 437.425
AO-85 29 Jun 22:30:59 22:36:05 41° 309° (NW) 22:41:02 145.980
VELOX 1 29 Jun 22:34:43 22:36:22 12° 61° (ENE) 22:38:02 145.980
ANTELSAT 29 Jun 22:45:47 22:49:55 31° 96° (E) 22:54:04 437.575/2403.000
HUMSAT D 29 Jun 23:01:44 23:05:38 39° 262° (W) 23:09:38 437.325/437.525
UKube-1 29 Jun 23:07:01 23:09:44 16° 64° (ENE) 23:12:26 .
SPROUT 29 Jun 23:07:41 23:08:43 11° 61° (ENE) 23:09:43 437.525
AISAT 29 Jun 23:13:10 23:17:02 31° 69° (ENE) 23:20:54 437.250
ESTCUBE 1 29 Jun 23:14:12 23:18:34 48° 72° (ENE) 23:22:56 437.505/2401.250
DELFI C3 29 Jun 23:22:59 23:24:00 11° 270° (W) 23:25:01 145.870
YUBILEINY 29 Jun 23:27:52 23:36:13 44° 74° (ENE) 23:44:30 435.215
DX 1 29 Jun 23:28:10 23:32:03 33° 70° (ENE) 23:35:58 434.975-435.025
RS-15 29 Jun 23:33:48 23:42:19 23° 261° (W) 23:50:46 29.354- 29.394
TIGRISAT 29 Jun 23:36:35 23:41:16 83° 284° (WNW) 23:45:59 435.000
50 SAT 29 Jun 23:37:26 23:41:04 56° 74° (ENE) 23:44:44 437.505
NANOSAT C BR1 29 Jun 23:38:01 23:40:45 17° 93° (E) 23:43:28 145.865
QB50P1 29 Jun 23:41:34 23:44:38 19° 93° (E) 23:47:42 145.935-145.965
UNISAT 6 29 Jun 23:42:15 23:46:54 69° 285° (WNW) 23:51:34 437.425
Cosmos 2504 29 Jun 23:44:19 23:50:06 19° 60° (ENE) 23:55:45 435.465 / 435.565
POPSAT HIP 1 29 Jun 23:44:49 23:48:02 20° 94° (E) 23:51:13 437.405
SO-50 29 Jun 23:51:32 23:55:41 30° 47° (NE) 23:59:42 436.795
CUBEBUG 1 29 Jun 23:56:01 00:00:23 88° 257° (WSW) 00:04:44 437.445
QB50P2 29 Jun 23:57:05 00:00:51 30° 96° (E) 00:04:37 145.880/145.840
DUCHIFAT 1 29 Jun 23:57:15 00:00:47 25° 95° (E) 00:04:19 145.980
POLYITAN 1 29 Jun 23:59:41 00:03:30 30° 97° (E) 00:07:17 437.675
VELOX 1 30 Jun 00:07:52 00:12:15 71° 258° (WSW) 00:16:40 145.980
TISAT 1 30 Jun 00:20:46 00:23:31 17° 65° (ENE) 00:26:17 437.305
ANTELSAT 30 Jun 00:22:34 00:26:31 28° 292° (WNW) 00:30:28 437.575/2403.000
Cosmos 2491 30 Jun 00:37:47 00:46:18 59° 91° (E) 00:54:48 435.465 / 435.565
SPROUT 30 Jun 00:39:48 00:44:02 73° 259° (W) 00:48:18 437.525
UKube-1 30 Jun 00:41:14 00:45:23 47° 260° (W) 00:49:34 .
BUGSAT 1 30 Jun 00:46:51 00:50:44 40° 99° (E) 00:54:38 437.445
AISAT 30 Jun 00:49:57 00:53:31 24° 265° (W) 00:57:06 437.250
ESTCUBE 1 30 Jun 00:52:48 00:55:37 16° 268° (W) 00:58:28 437.505/2401.250
DX 1 30 Jun 01:04:57 01:08:18 22° 265° (W) 01:11:41 434.975-435.025
NANOSAT C BR1 30 Jun 01:12:39 01:16:40 42° 288° (WNW) 01:20:41 145.865
QB50P1 30 Jun 01:16:37 01:20:31 36° 289° (WNW) 01:24:26 145.935-145.965
POPSAT HIP 1 30 Jun 01:20:02 01:23:52 34° 290° (WNW) 01:27:44 437.405
YUBILEINY 30 Jun 01:24:50 01:32:56 42° 273° (W) 01:41:00 435.215
SWISSCUBE 30 Jun 01:28:41 01:32:25 23° 65° (ENE) 01:36:09 437.505
SO-50 30 Jun 01:32:00 01:36:09 33° 246° (WSW) 01:40:13 436.795
DUCHIFAT 1 30 Jun 01:32:50 01:36:26 27° 291° (WNW) 01:40:02 145.980
QB50P2 30 Jun 01:33:05 01:36:31 24° 292° (WNW) 01:39:56 145.880/145.840
POLYITAN 1 30 Jun 01:35:44 01:39:08 23° 293° (WNW) 01:42:33 437.675
